Regional Weather Roundup
Issued by NWS

Home | Current Version | Previous Version | Graphics & Text | Print | Product List | Glossary On
Versions: 1 2 3 4 5 6 7 8 9 10 11 12 13 14 15 16 17 18 19 20 21 22 23 24 25 26 27 28 29 30 31 32 33 34 35 36 37 38 39 40 41 42 43 44 45 46 47 48 49 50
000
ASUS43 KBIS 020901
RWRND

NORTH DAKOTA REGIONAL WEATHER ROUNDUP
NATIONAL WEATHER SERVICE BISMARCK ND
300 AM CST MON MAR 02 2015

NOTE: "FAIR" INDICATES FEW OR NO CLOUDS BELOW 12,000 FEET WITH NO
SIGNIFICANT WEATHER AND/OR OBSTRUCTIONS TO VISIBILITY.


NDZ001>003-009>011-017-021000-
NORTHWEST NORTH DAKOTA

CITY           SKY/WX    TMP DP  RH WIND       PRES   REMARKS
WILLISTON      PTCLDY     7   2  80 S6        30.17F WCI  -3
MINOT          PTCLDY     9   1  70 S5        30.24F WCI   1
$$

NDZ018>021-031>035-040>046-021000-
SOUTHWEST NORTH DAKOTA

CITY           SKY/WX    TMP DP  RH WIND       PRES   REMARKS
BISMARCK       CLEAR      3  -1  83 SE3       30.32F
DICKINSON      CLEAR      7   1  76 S10       30.15F WCI  -8
GARRISON         N/A      1  -2  87 SE3       30.25F
HETTINGER ARPT CLEAR     10   6  84 SE9       30.19F WCI  -3
$$

NDZ004>008-012>016-024-026-027-054-021000-
NORTHEAST NORTH DAKOTA

CITY           SKY/WX    TMP DP  RH WIND       PRES   REMARKS
GRAND FORKS    PTCLDY     1  -4  79 CALM      30.35F
GRND FRKS AFB  PTCLDY     4  -1  80 W5        30.35S WCI  -6
DEVILS LAKE    PTCLDY     3  -2  78 SW6       30.30S WCI  -8
$$

NDZ022-023-025-028>030-036>039-047>053-021000-
SOUTHEAST NORTH DAKOTA

CITY           SKY/WX    TMP DP  RH WIND       PRES   REMARKS
FARGO          PTCLDY     2  -3  80 SW7       30.40R WCI -11
JAMESTOWN      PTCLDY     4   0  83 SW7       30.33S WCI  -8
$$




USA.gov is the U.S. government's official web portal to all federal, state and local government web resources and services.